OBJECT BS, 43822

Orbit data source: Space-Track

You're viewing an Uncataloged Satellite

Recently launched and/or uncataloged satellites may have evolving metadata. Metadata may include but not limited to: Owner, Maufacturer, Bus, Motor, and Mission.

OBJECT BS, 43822 is a satellite in SSO that was launched on Mon, 03 Dec 2018 UTC via an FALCON 9 launch vehicle from the Air Force Western Test Range (AFWTR). Unknown objects in Earth's orbit typically refer to objects detected orbiting the Earth but have not yet been identified or cataloged. These objects could be anything from previously untracked satellites, spent rocket stages, debris from satellite collisions, or even natural meteoroids temporarily captured by Earth's gravity.

Loading next visibility...
Identifier
43822, 2018-099BS
Orbit
SSO
Country
Flag of TBDTBD
Related business
None
Manufacturer
Unknown
Mission
Amateur Technology
Bus & Motor
Unknown
Mass
Unknown
Launch date (UTC)
2018-12-03 (7 years ago)
Launch vehicle
FALCON 9
Launch site
Air Force Western Test Range (AFWTR)
Object type
Unknown
Shape & HBR
Box, 0.3 m
Radar Cross Section
0.025 m², Small (<0.1 m²)

Expand to show TLE details & history
Last TLE update: 16 hours ago

TLE from 16 hours ago
0 OBJECT BS
1 43822U 18099BS  25309.11422805  .00005323  00000-0  31582-3 0  9993
2 43822  97.4674 359.2796 0009477  53.4547 306.7555 15.11724877372336
Epoch: 2025-11-05T02:44Z
TLE epoch observation values (Epoch: 2025-11-05T02:44:29.303Z)
Latitude
0.00002°
Longitude
-86.43405°
Altitude
530.102 km
Speed
7.6 km/s
True Right ascension
23h 57m 07s
True Declination
0° 00' 00"
Sunlit
Object was in full shadow at epoch
Visualization orbit readout
Latitude
Unknown
Longitude
Unknown
Altitude
Unknown
Speed
Unknown
Apparent Right ascension
Unknown
Apparent Declination
Unknown
Sunlit
N/A
Visualization observer readout
Local Sidereal Time
14:24:43
Azimuth
Unknown
Elevation
Unknown
Doppler factor
Unknown
Orbital elements
Apogee altitude
534.464 km
Perigee altitude
521.374 km
Semi-major axis
6,906.056 km
Eccentricity
0.00095
Inclination
97.4674°
RAAN
359.2796°
Arg. of periapsis
53.4547°
True anomaly
306.66843°
Mean anomaly
306.7555°
Eccentric anomaly
306.71197°
Mean motion
3.7818 °/min
Orbital period
95.19 mins
BSTAR
0.00031582
Loading maneuver chart data...
Computing Atmospheric mass density...
Loading historical data...
Loading historical data...
Loading historical data...
Loading historical data...
Loading historical data...
Loading historical data...
Loading historical data...

Documentation

Showing up to 5 results
|